Regional Weather Roundup
Issued by NWS State College, PA

Home | Current Version | Previous Version | Text Only | Print | Product List | Glossary On
Versions: 1 2 3 4 5 6 7 8 9 10 11 12 13 14 15 16 17 18 19 20 21 22 23 24 25 26 27 28 29 30 31 32 33 34 35 36 37 38 39 40 41 42 43 44 45 46 47 48 49 50
000
ASUS41 KCTP 010410
RWRCTP

REGIONAL WEATHER ROUNDUP
NATIONAL WEATHER SERVICE STATE COLLEGE PA
1200 AM EDT WED OCT 01 2014

Note: "fair" indicates few or no clouds below 12,000 feet with no
significant weather and/or obstructions to visibility.

* = STATION THAT DOES NOT REPORT PRECIPITATION /E.G. RAIN...SNOW...ETC/
    THUNDER OR FOG.

PAZ002>004-007>009-013>016-020>023-029>032-010500-
WESTERN PENNSYLVANIA

CITY           SKY/WX    TMP DP  RH WIND       PRES   REMARKS
ERIE           PTCLDY    56  53  90 S3        29.98S
MEADVILLE      PTCLDY    54  51  90 CALM      29.99F FOG
FRANKLIN*      CLOUDY    55  52  88 N7        30.00S
NEW CASTLE       N/A     57  56  97 CALM      29.99S
BEAVER COUNTY  NOT AVBL
BUTLER*        PTCLDY    55  54  94 N6        29.99S
PITTSBURGH INT CLOUDY    59  58  96 N8        29.97R
PITTSBURGH     MOCLDY    57  54  89 NW3       29.96R FOG
INDIANA*       CLOUDY    57  55  94 CALM      30.01R
LATROBE        CLOUDY    57  57 100 CALM      29.98R
WASHINGTON CO* CLOUDY    57  55  94 N3        29.99R
$$

PAZ004>006-010>012-017>019-024>028-033>037-041-042-045-046-049>053-010500-
CENTRAL PENNSYLVANIA

CITY           SKY/WX    TMP DP  RH WIND       PRES   REMARKS
BRADFORD       CLOUDY    54  52  93 CALM      29.99S
DUBOIS         CLEAR     54  52  93 CALM      29.97S
CLEARFIELD     FOG       56  56 100 E3        29.98R VSB 1/4
JOHNSTOWN      CLOUDY    57  50  77 CALM      29.98S
ALTOONA        FOG       56  56 100 CALM      29.98S VSB 1/2
STATE COLLEGE  FOG       55  55  99 CALM      29.98R VSB 1/2
WILLIAMSPORT   CLOUDY    64  60  87 VRB5      29.95R
SELINSGROVE    CLOUDY    63  58  83 CALM      29.98R THUNDER
FT INDIANTOWN  HVY RAIN  60  60 100 E2        29.99S FOG
CAPITAL CITY   RAIN      61  59  93 CALM      29.98R
HARRISBURG     LGT RAIN  61  60  97 CALM      29.97R
YORK           LGT RAIN  60  59  96 E7        29.97F FOG
$$

PAZ038>040-043-044-047-048-054-055-060>062-067>071-010500-
EASTERN PENNSYLVANIA

CITY           SKY/WX    TMP DP  RH WIND       PRES   REMARKS
SCRANTON       MOCLDY    62  56  80 CALM      29.97F
MOUNT POCONO   CLOUDY    58  55  90 E6        30.01S
ALLENTOWN      MOCLDY    62  58  86 CALM      29.99R
QUAKERTOWN*    MOCLDY    59  57  94 CALM      29.99S
READING        CLOUDY    65  57  75 E3        29.97S
LANCASTER      CLOUDY    64  60  87 E5        29.97S
COATESVILLE    MOCLDY    63  59  88 SE3       29.99R
POTTSTOWN      MOCLDY    58  56  93 CALM      29.99S
BLUE BELL      PTCLDY    59  59 100 CALM      29.97S
DOYLESTOWN     CLOUDY    60  59  96 CALM      29.98R
WILLOW GROVE   NOT AVBL
NORTH PHILA    MOCLDY    63  56  78 NE3       29.98S
PHILADELPHIA   MOCLDY    63  58  83 NE6       29.97R
$$


USA.gov is the U.S. government's official web portal to all federal, state and local government web resources and services.